Newport Airport, OR

8:42 AM PDT on September 25, 2017 (GMT -0700)
Newport Municipal

Weather History for KONP - February, 2011

Change the Weather History Date:

Tuesday, February 15, 2011

  Actual Average Record
Temperature  
Mean Temperature 42 °F -  
Max Temperature 46 °F 50 °F 64 °F (2015)
Min Temperature 39 °F 40 °F 28 °F (2006)
Degree Days  
Heating Degree Days 22    
Moisture  
Dew Point 37 °F    
Average Humidity 78    
Maximum Humidity 87    
Minimum Humidity 66    
Precipitation  
Precipitation 0.01 in - - ()
Sea Level Pressure  
Sea Level Pressure 29.61 in    
Wind  
Wind Speed 17 mph (SSW)    
Max Wind Speed 26 mph    
Max Gust Speed 32 mph    
Visibility 9 miles    
Events Rain    
Averages and records for this station are not official NWS values.
T = Trace of Precipitation, MM = Missing Value Source: NWS Daily Summary

Daily Weather History Graph

Daily Weather History Graph

Search for Another Location

Airport or City:

Trip Planner

Search our weather history database for the weather conditions in past years. The results will help you decide how hot, cold, wet, or windy it might be!

Date:

Astronomy

Feb. 15, 2011 Rise Set
Actual Time 7:16 AM PST 5:44 PM PST
Civil Twilight 6:46 AM PST 6:14 PM PST
Nautical Twilight 6:12 AM PST 6:48 PM PST
Astronomical Twilight 5:38 AM PST 7:22 PM PST
Moon 2:55 PM PST (2/15) 5:20 AM PST (2/15)
Length of Visible Light 11h 28m
Length of Day
10h 28m
Waxing Gibbous, 91% of the Moon is Illuminated
Feb 15
Waxing Gibbous
Feb 18
Full
Feb 24
Last Quarter
Mar 4
New
Mar 12
First Quarter

Hourly Weather History & Observations

Time (PST) Temp. Windchill Dew Point Humidity Pressure Visibility Wind Dir Wind Speed Gust Speed Precip Events Conditions
1:52 PM 44.6 °F 35.3 °F 39.2 °F 81% 29.62 in - SW 26.5 mph - N/A   Unknown
2:12 PM 44.6 °F 37.2 °F 41.0 °F 87% 29.61 in 7.0 mi SW 17.3 mph 25.3 mph N/A   Mostly Cloudy
2:52 PM 46.4 °F 39.0 °F 39.2 °F 76% 29.59 in 10.0 mi SW 19.6 mph 28.8 mph N/A   Overcast
3:12 PM 44.6 °F 36.9 °F 39.2 °F 81% 29.60 in 7.0 mi SSW 18.4 mph 32.2 mph N/A Rain Light Rain
3:32 PM 44.6 °F 37.8 °F 39.2 °F 81% 29.60 in 10.0 mi SSW 15.0 mph 23.0 mph N/A   Overcast
3:52 PM 44.6 °F 36.9 °F 39.2 °F 81% 29.60 in 7.0 mi SSW 18.4 mph 24.2 mph N/A   Overcast
4:12 PM 44.6 °F 37.8 °F 39.2 °F 81% 29.60 in 5.0 mi SW 15.0 mph 23.0 mph N/A Rain Light Rain
4:32 PM 46.4 °F 39.2 °F 41.0 °F 81% 29.60 in 7.0 mi WSW 18.4 mph 25.3 mph N/A   Mostly Cloudy
4:52 PM 44.6 °F 36.6 °F 37.4 °F 76% 29.59 in 10.0 mi SW 19.6 mph 28.8 mph N/A   Clear
5:12 PM 44.6 °F 36.6 °F 37.4 °F 76% 29.59 in 10.0 mi SW 19.6 mph 27.6 mph N/A   Scattered Clouds
5:32 PM 44.6 °F 36.6 °F 37.4 °F 76% 29.59 in 10.0 mi SW 19.6 mph 27.6 mph N/A   Scattered Clouds
5:52 PM 44.6 °F 36.9 °F 37.4 °F 76% 29.60 in 7.0 mi SW 18.4 mph 28.8 mph N/A   Scattered Clouds
6:32 PM 44.6 °F 37.4 °F 37.4 °F 76% 29.61 in 10.0 mi SW 16.1 mph 23.0 mph 0.01 in   Scattered Clouds
6:52 PM 44.6 °F 36.9 °F 35.6 °F 71% 29.61 in 10.0 mi WSW 18.4 mph 25.3 mph 0.01 in   Scattered Clouds
7:12 PM 44.6 °F 36.9 °F 33.8 °F 66% 29.61 in 10.0 mi SW 18.4 mph 29.9 mph N/A   Mostly Cloudy
7:32 PM 44.6 °F 37.8 °F 37.4 °F 76% 29.61 in 10.0 mi WSW 15.0 mph 29.9 mph N/A   Mostly Cloudy
7:52 PM 44.6 °F 36.9 °F 35.6 °F 71% 29.61 in 10.0 mi WSW 18.4 mph 21.9 mph N/A   Mostly Cloudy
8:12 PM 44.6 °F 37.8 °F 35.6 °F 71% 29.62 in 10.0 mi SW 15.0 mph 23.0 mph N/A   Scattered Clouds
8:32 PM 44.6 °F 37.4 °F 35.6 °F 71% 29.62 in 10.0 mi SW 16.1 mph 23.0 mph N/A   Clear
8:52 PM 44.6 °F 38.4 °F 37.4 °F 76% 29.63 in 10.0 mi SW 12.7 mph - N/A   Mostly Cloudy
9:14 PM 42.8 °F 35.8 °F 35.6 °F 76% 29.63 in 10.0 mi SSW 13.8 mph 23.0 mph N/A   Mostly Cloudy
9:32 PM 42.8 °F 38.6 °F 37.4 °F 81% 29.63 in 10.0 mi South 6.9 mph - N/A   Drizzle
9:52 PM 42.8 °F 36.6 °F 35.6 °F 76% 29.63 in 10.0 mi SSW 11.5 mph 19.6 mph N/A   Overcast
10:12 PM 41.0 °F 37.1 °F 35.6 °F 81% 29.63 in 10.0 mi South 5.8 mph - N/A   Mostly Cloudy
10:32 PM 41.0 °F 34.7 °F 35.6 °F 81% 29.62 in 10.0 mi SSW 10.4 mph 16.1 mph N/A   Scattered Clouds
10:52 PM 39.2 °F 35.9 °F 35.6 °F 87% 29.61 in 10.0 mi SSE 4.6 mph - N/A   Scattered Clouds
11:12 PM 39.2 °F 33.6 °F 35.6 °F 87% 29.62 in 10.0 mi South 8.1 mph - N/A   Scattered Clouds
11:33 PM 39.2 °F 35.9 °F 35.6 °F 87% 29.61 in 10.0 mi SE 4.6 mph - N/A   Mostly Cloudy
11:52 PM 39.2 °F 35.0 °F 35.6 °F 87% 29.60 in 10.0 mi SE 5.8 mph - N/A   Overcast